Flag for Germany Weather past 2 weeks in Freital, Saxony, Germany

Now
42 °F

Overcast.


Feels Like: 38 °F
Forecast: 37 / 45 °F
Wind: 6 mph from Southwest

Location: Dresden-Klotzsche

Current Time: Mar 2, 2015 at 12:45:11 AM

Latest Report: Mar 2, 2015 at 12:00 AM


Visibility: 16 mi

Pressure: 29.65 "Hg

Humidity: 83%

Dew point: 37 °F

Location of FreitalLocation

Historic Weather in Freital — Graph

°F

Freital temperature yesterday

Maximum temperature yesterday: 45 °F (at 5:00 PM)
Minimum temperature yesterday: 32 °F (at 12:00 AM)
Average temperature yesterday: 38 °F

Past Weeks' High & Low Weather Summary

 TemperatureHumidityPressure
High53 °F (Feb 20, 3:00 PM)97% (Feb 17, 6:00 PM)30.76 "Hg (Feb 17, 6:00 PM)
Low25 °F (Feb 20, 8:00 AM)34% (Feb 26, 3:00 PM)29.44 "Hg (Feb 21, 2:00 PM)
Average37 °F77%30.04 "Hg
* Reported Feb 14 11:00 PM — Mar 1 11:00 PM, Freital, Weather by CustomWeather, © 2015

Note: Actual official high and low records may vary slightly from our data, if they occured in-between our weather recording intervals... More about our weather records

Advertising

Freital weather history for previous 24 hours

 ConditionsComfort  
Time TempWeatherWind HumidityBarometerVisibility
11:00 PM
Sun, Mar 1
44 °FOvercast.6 mph80%29.66 "Hg16 mi
9:00 PM44 °FOvercast.7 mph76%29.67 "Hg19 mi
8:00 PM43 °FPassing clouds.7 mph78%29.68 "Hg19 mi
7:00 PM44 °FOvercast.7 mph76%29.68 "Hg19 mi
6:00 PM44 °FPassing clouds.8 mph77%29.67 "Hg25 mi
5:00 PM45 °FOvercast.9 mph73%29.68 "Hg25 mi
3:00 PM42 °FOvercast.7 mph84%29.68 "Hg19 mi
2:00 PM41 °FOvercast.7 mph88%29.70 "Hg12 mi
1:00 PM38 °FRain. Overcast.7 mph95%29.72 "Hg5 mi
12:00 PM38 °FLight rain. Overcast.8 mph92%29.74 "Hg4 mi
11:00 AM38 °FLight rain. Overcast.6 mph85%29.75 "Hg9 mi
10:00 AM39 °FOvercast.6 mph70%29.76 "Hg16 mi
9:00 AM37 °FOvercast.7 mph74%29.79 "Hg15 mi
8:00 AM36 °FOvercast.6 mph79%29.82 "Hg14 mi
7:00 AM34 °FPartly sunny.6 mph80%29.85 "Hg11 mi
6:00 AM34 °FPassing clouds.6 mph81%29.87 "Hg12 mi
5:00 AM34 °FPassing clouds.6 mph80%29.90 "Hg12 mi
3:00 AM33 °FPassing clouds.6 mph82%29.96 "Hg12 mi
2:00 AM34 °FPassing clouds.6 mph80%29.98 "Hg12 mi
1:00 AM33 °FClear.6 mph86%30.01 "Hg11 mi
12:00 AM32 °FClear.6 mph88%30.03 "Hg11 mi
Weather by CustomWeather, © 2015

See weather overviewHow to use our weather pages